DMSP 5D-2 F13 DEB, 42327

Orbit data source: Space-Track

DMSP 5D-2 F13 DEB, 42327 is space debris in SSO originally from a launch on Fri, 24 Mar 1995 UTC launched from the Air Force Western Test Range (AFWTR). Debris objects in space refer to the collection of defunct objects orbiting the Earth. Examples of debris include non-operational satellites, rocket bodies, and fragments generated from explosions, collisions, or faulty payload assembly.

Loading next visibility...
DMSP 5D-2 F13 DEB details
Identifier
42327, 1995-015JV
Orbit
SSO
Last TLE update2 days ago
Origin
Flag of USUSAF SMC (US)
ManufacturerUnknown
MissionSpacecraft
Bus & MotorUnknown
MassUnknown
Launch date (UTC)
1995-03-24 (30 years ago)
Launch vehicleUnknown
Launch site
Air Force Western Test Range (AFWTR)
Object type
Payload
Rocket body
Debris
Shape & HBRUnknown
Radar Cross SectionSmall (<0.1 m²)

Expand to show TLE details & history

TLE from 2 days ago
0 DMSP 5D-2 F13 DEB
1 42327U 95015JV  24335.35387126  .00016502  00000-0  60044-2 0  9990
2 42327  98.7122 358.3724 0005074 227.2613 132.8144 14.33222717472705
Epoch: 2024-11-30T08:29Z
Definitive object data (Epoch: 2024-11-30T08:29:34.476Z)
Latitude-0.00006°
Longitude161.27112°
Altitude786.381 km
Speed7.459 km/s
True Right ascension23h 53m 29s
True Declination0° 00' 00"
Sunlit
Object was in daylight at TLE epoch
Visualization TLE readout
Latitude36.96365°
Longitude-10.1481°
Altitude785.101 km
Speed7.465 km/s
Apparent Right ascension14h 53m 53s
Apparent Declination1° 31' 09"
Sunlit
Object is in daylight
Visualization observer readout
Local Sidereal Time05:50:20
Azimuth55.353° ENE
Elevation-32.24°
Doppler factor1
Orbital elements
Apogee altitude781.751 km
Perigee altitude774.489 km
Semi-major axis7,156.257 km
Eccentricity0.0005074
Inclination98.7122°
RAAN358.3724°
Arg. of periapsis227.2613°
True anomaly132.85703°
Mean anomaly132.8144°
Eccentric anomaly132.83572°
Mean motion3.58521 °/min
BSTAR0.0060044
Orbital period100.41 mins
Loading maneuver chart data...

DMSP 5D-2 F13 DEB Visibility forecast

Observer location: undefined°, undefined

Span
Click to sort rows by Start time (UTC) header in descending order
Start Az.
Max El. time (UTC)
Max El. Az.
Max El.
End time (UTC)
End Az.
9 mins2024-12-02 14:41:10.449Z13.241° NNE2024-12-02 14:45:10.449Z5.499° NNE44.74°2024-12-02 14:50:10.449Z195.56° SSW
4 mins2024-12-03 00:21:10.449Z79.604° E2024-12-03 00:22:10.449Z66.347° ENE15.278°2024-12-03 00:25:10.449Z28.848° NE
9 mins2024-12-03 01:57:10.449Z178.372° S2024-12-03 02:01:10.449Z254.392° W42.194°2024-12-03 02:06:10.449Z340.05° N
|